[[{"header":{"parameterUnit":"m.s-1","parameterCategory":1,"la1":30.2991,"la2":30.254,"lo1":-89.0895,"lo2":-89.0444,"dy":0.0017,"dx":0.0017,"nx":28,"ny":28,"refTime":"2025-05-26T21:00:00:Z","depth":0,"parameterNumber":2,"parameterNumberName":"U-component_of_WINDS"},"data":[0,0,0,0,0,0,0,0,0,0,0,0,0,0,0,0,0,0,0,0,0,0,0,0,0,0,0,0,0,0,0,0,0,0,0,0,0,0,0,0,0,0,0,0,0,0,0,0,0,0,0,0,0,0,0,0,0,0,-0.9835,-0.9834,0,-0.9736,-0.9735,-0.9734,-0.9679,-0.9679,-0.9679,-0.9678,-0.9572,-0.9569,-0.9567,0,0,0,0,0,0,0,0,0,0,0,0,0,-0.9972,-0.997,-0.9835,-0.9834,-0.9833,-0.9736,-0.9735,-0.9734,-0.9679,-0.9679,-0.9679,-0.9678,-0.9573,-0.957,-0.9566,0,0,0,0,0,0,0,0,0,0,0,0,0,-0.9897,-0.9969,-0.9835,-0.9794,-0.9789,-0.9737,-0.9735,-0.9733,-0.9679,-0.9679,-0.9679,-0.9678,-0.9574,-0.957,-0.9566,-0.9545,0,0,-0.9553,-0.9552,0,0,0,0,0,0,0,0,-0.9901,-0.9892,-0.9801,-0.9797,-0.9791,-0.972,-0.9744,-0.967,-0.9679,-0.9721,-0.9678,-0.9678,-0.9621,-0.9613,-0.9595,-0.954,-0.9536,-0.9553,-0.9551,-0.9549,-0.9548,0,0,0,0,0,0,0,-0.9906,-0.9896,-0.9796,-0.98,-0.9794,-0.9779,-0.9768,-0.973,-0.9673,-0.9717,-0.9713,-0.9702,-0.9618,-0.9599,-0.9592,-0.9534,-0.9553,-0.955,-0.9547,-0.9546,-0.9457,-0.9457,0,0,0,0,0,0,-0.9919,-0.99,-0.9799,-0.9793,-0.9847,-0.9776,-0.9764,-0.9743,-0.9673,-0.9663,-0.9702,-0.97,-0.9606,-0.9597,-0.9588,-0.9559,-0.9549,-0.9545,-0.9543,-0.9457,-0.9457,-0.9457,0,0,0,0,0,0,-0.9922,-0.991,-0.9803,-0.9845,-0.9831,-0.9774,-0.9751,-0.9741,-0.9722,-0.9662,-0.9651,-0.9693,-0.9605,-0.9593,-0.9556,-0.9554,-0.9543,-0.954,-0.9457,-0.9457,-0.9457,-0.9501,0,0,0,0,0,0,-0.9926,-0.9912,-0.9905,-0.9846,-0.9829,-0.9775,-0.9751,-0.9739,-0.9715,-0.9711,-0.9651,-0.9641,-0.9604,-0.9563,-0.9552,-0.9548,-0.9536,-0.9456,-0.9457,-0.9457,-0.9499,-0.9502,-0.9505,0,0,0,0,0,-0.9931,-0.992,-0.9905,-0.9893,-0.9819,-0.9775,-0.9765,-0.9725,-0.9716,-0.9707,-0.9669,-0.9643,-0.9556,-0.9559,-0.9547,-0.9542,-0.9456,-0.9457,-0.9457,-0.9498,-0.9502,-0.9505,0,0,0,0,0,0,-0.9978,-0.9911,-0.9894,-0.9863,-0.9825,-0.9766,-0.9754,-0.973,-0.9692,-0.969,-0.964,-0.9627,-0.9594,-0.9564,-0.9569,-0.9518,-0.9503,-0.9501,-0.9539,-0.9542,-0.9545,-0.9552,-0.9533,0,0,0,0,0,-0.9986,-0.9957,-0.99,-0.9878,-0.986,-0.9811,-0.979,-0.9762,-0.972,-0.9703,-0.9662,-0.9621,-0.9585,-0.9562,-0.9525,-0.9495,-0.948,-0.9485,-0.9488,-0.9491,-0.9489,-0.947,-0.9471,-0.9457,-0.9457,-0.9457,0,0,-0.9999,-0.9959,-0.9944,-0.9887,-0.9854,-0.9824,-0.9797,-0.9767,-0.9744,-0.9698,-0.9661,-0.963,-0.958,-0.9547,-0.953,-0.9521,-0.949,-0.9491,-0.9493,-0.949,-0.947,-0.9472,-0.9473,-0.9458,-0.9457,-0.9457,0,0,-1.0009,-0.9977,-0.9955,-0.9923,-0.9875,-0.9842,-0.9837,-0.9781,-0.9759,-0.9721,-0.9686,-0.9657,-0.9595,-0.9562,-0.9537,-0.9534,-0.9508,-0.9523,-0.9538,-0.952,-0.9521,-0.9522,-0.9521,-0.9521,-0.9522,-0.9522,-0.9522,0,-1.0032,-0.9988,-0.9947,-0.9919,-0.9894,-0.9853,-0.983,-0.98,-0.9742,-0.9725,-0.9716,-0.9638,-0.9602,-0.9559,-0.9559,-0.954,-0.9532,-0.953,-0.9525,-0.9525,-0.9525,-0.9523,-0.9523,-0.9524,-0.9524,-0.9524,-0.9523,0,-1.0018,-0.9987,-0.9976,-0.9922,-0.9895,-0.987,-0.9824,-0.9802,-0.9776,-0.9744,-0.9706,-0.9661,-0.9614,-0.9602,-0.9576,-0.9556,-0.9552,-0.9535,-0.9519,-0.9529,-0.9526,-0.9525,-0.9527,-0.9526,-0.9526,-0.9525,0,0,-1.0055,-0.9979,-0.9975,-0.995,-0.9894,-0.9868,-0.984,-0.9796,-0.9778,-0.9739,-0.9714,-0.9663,-0.9647,-0.9618,-0.9588,-0.9573,-0.9573,-0.9557,-0.9555,-0.9561,-0.9547,-0.956,-0.956,-0.9556,-0.9555,-0.9555,-0.9551,0,-1.0057,-1.0006,-0.9968,-0.9932,-0.9902,-0.9863,-0.9838,-0.98,-0.9769,-0.9738,-0.9703,-0.9668,-0.965,-0.9632,-0.9615,-0.9577,-0.9569,-0.9576,-0.953,-0.9529,-0.9543,-0.9558,-0.9572,-0.957,-0.9549,-0.9549,-0.9549,0,-1.0052,-1.0016,-0.9977,-0.9923,-0.9909,-0.9888,-0.9844,-0.9816,-0.9771,-0.975,-0.9718,-0.9688,-0.9655,-0.9643,-0.9596,-0.9602,-0.9581,-0.9559,-0.9558,-0.9551,-0.9539,-0.9551,-0.9568,-0.9568,-0.9547,-0.9547,-0.9547,0,-1.0082,-1.0023,-0.9992,-0.9972,-0.9909,-0.9895,-0.9867,-0.9823,-0.9799,-0.976,-0.9743,-0.9701,-0.9678,-0.9645,-0.9603,-0.9598,-0.9561,-0.9545,-0.954,-0.9541,-0.9534,-0.9535,-0.9546,-0.9521,-0.9521,-0.9521,-0.9521,0,-1.0088,-1.0065,-1.0005,-0.9986,-0.9959,-0.9915,-0.9889,-0.9858,-0.9819,-0.9792,-0.9755,-0.973,-0.9677,-0.9645,-0.9612,-0.9578,-0.9568,-0.9548,-0.954,-0.9551,-0.9554,-0.9536,-0.9535,-0.9521,-0.9521,-0.9521,-0.9521,0,-1.0117,-1.0076,-1.004,-0.9983,-0.9968,-0.9951,-0.9901,-0.988,-0.9848,-0.9814,-0.9803,-0.9751,-0.9712,-0.9667,-0.9613,-0.959,-0.9559,-0.9546,-0.9574,-0.9569,-0.9567,-0.9567,-0.9567,-0.9565,-0.9542,-0.9543,-0.9543,0,-1.0123,-1.0105,-1.0047,-1.0027,-1.0001,-0.9969,-0.9945,-0.99,-0.9876,-0.9824,-0.9809,-0.9767,-0.9731,-0.967,-0.9626,-0.9584,-0.957,-0.9573,-0.9564,-0.9576,-0.957,-0.9571,-0.9569,-0.9576,-0.9576,-0.9577,-0.9577,0,-1.0138,-1.0119,-1.0086,-1.0045,-1.0017,-0.9983,-0.9947,-0.9932,-0.988,-0.9855,-0.9815,-0.9787,-0.9732,-0.9691,-0.9644,-0.9614,-0.9586,-0.958,-0.9577,-0.9588,-0.9605,-0.9596,-0.9581,-0.958,-0.958,-0.958,-0.958,-0.9579,-1.0156,-1.0138,-1.0094,-1.0058,-1.0026,-0.9993,-0.9971,-0.9936,-0.9902,-0.9855,-0.983,-0.9791,-0.9746,-0.968,-0.9651,-0.9618,-0.9609,-0.9604,-0.9603,-0.9602,-0.9605,-0.9611,-0.9609,-0.9609,-0.9609,-0.9609,-0.9609,0,-1.0169,-1.0138,-1.0106,-1.0057,-1.0028,-1.0007,-0.9966,-0.9943,-0.9909,-0.987,-0.9836,-0.979,-0.9749,-0.9703,-0.9659,-0.9642,-0.9628,-0.9632,-0.9632,-0.9626,-0.9616,-0.9623,-0.9644,-0.9644,-0.9644,-0.9644,-0.9644,-0.9644,-1.0172,-1.014,-1.0115,-1.0067,-1.0036,-0.9998,-0.9977,-0.9946,-0.9914,-0.9865,-0.9832,-0.9802,-0.976,-0.9713,-0.9674,-0.9661,-0.9647,-0.9654,-0.9638,-0.9629,-0.9626,-0.9623,-0.963,-0.9652,-0.9652,-0.965,-0.965,-0.965]},{"header":{"parameterUnit":"m.s-1","parameterCategory":1,"la1":30.2991,"la2":30.254,"lo1":-89.0895,"lo2":-89.0444,"dy":0.0017,"dx":0.0017,"nx":28,"ny":28,"refTime":"2025-05-26T21:00:00:Z","depth":0,"parameterNumber":3,"parameterNumberName":"V-component_of_WINDS"},"data":[0,0,0,0,0,0,0,0,0,0,0,0,0,0,0,0,0,0,0,0,0,0,0,0,0,0,0,0,0,0,0,0,0,0,0,0,0,0,0,0,0,0,0,0,0,0,0,0,0,0,0,0,0,0,0,0,0,0,5.3446,5.3445,0,5.3359,5.3358,5.3357,5.3311,5.3311,5.331,5.331,5.3212,5.321,5.3207,0,0,0,0,0,0,0,0,0,0,0,0,0,5.3564,5.3562,5.3446,5.3445,5.3444,5.3359,5.3358,5.3357,5.3311,5.3311,5.331,5.331,5.3213,5.321,5.3207,0,0,0,0,0,0,0,0,0,0,0,0,0,5.3499,5.3562,5.3446,5.3411,5.3407,5.336,5.3358,5.3357,5.3311,5.3311,5.331,5.331,5.3214,5.3211,5.3207,5.3185,0,0,5.3195,5.3194,0,0,0,0,0,0,0,0,5.3502,5.3494,5.3417,5.3413,5.3409,5.3346,5.3364,5.3299,5.3311,5.3347,5.331,5.331,5.3256,5.3249,5.3233,5.3181,5.3177,5.3195,5.3193,5.3191,5.319,0,0,0,0,0,0,0,5.3507,5.3498,5.3411,5.3416,5.3411,5.3397,5.3387,5.3351,5.3303,5.3344,5.334,5.3331,5.3254,5.3237,5.323,5.3175,5.3195,5.3192,5.3189,5.3188,5.3102,5.3102,0,0,0,0,0,0,5.3518,5.3502,5.3414,5.3409,5.3456,5.3395,5.3384,5.3366,5.3303,5.3294,5.3331,5.3329,5.3243,5.3235,5.3226,5.3198,5.3191,5.3187,5.3185,5.3102,5.3102,5.3102,0,0,0,0,0,0,5.3521,5.3511,5.3418,5.3454,5.3441,5.3393,5.3373,5.3364,5.3347,5.3294,5.3284,5.3323,5.3243,5.3232,5.3197,5.3194,5.3186,5.3182,5.3102,5.3102,5.3102,5.3141,0,0,0,0,0,0,5.3525,5.3512,5.3505,5.3455,5.344,5.3392,5.3372,5.3363,5.3342,5.3338,5.3284,5.3274,5.3242,5.3203,5.3193,5.3189,5.3179,5.3102,5.3102,5.3102,5.314,5.3142,5.3145,0,0,0,0,0,5.3529,5.3517,5.3505,5.3495,5.343,5.3392,5.3383,5.3348,5.3342,5.3333,5.3299,5.3276,5.3196,5.32,5.3188,5.3183,5.3102,5.3102,5.3102,5.3139,5.3142,5.3144,0,0,0,0,0,0,5.3565,5.351,5.3496,5.3468,5.3436,5.3384,5.3372,5.3353,5.3319,5.3317,5.3272,5.326,5.323,5.3202,5.3207,5.3159,5.3147,5.3144,5.3178,5.3181,5.3183,5.319,5.3176,0,0,0,0,0,5.3571,5.3547,5.3498,5.3478,5.3463,5.3421,5.3403,5.3379,5.3342,5.3327,5.3291,5.3254,5.322,5.3199,5.3165,5.3136,5.3123,5.3126,5.3129,5.3131,5.3129,5.3112,5.3113,5.3102,5.3102,5.3102,0,0,5.358,5.3547,5.3534,5.3485,5.3457,5.3431,5.3409,5.3382,5.3362,5.3322,5.3288,5.326,5.3216,5.3184,5.3168,5.316,5.313,5.3131,5.3133,5.313,5.3112,5.3113,5.3114,5.3102,5.3102,5.3102,0,0,5.3584,5.3557,5.3538,5.3512,5.3471,5.3443,5.3439,5.3391,5.3372,5.3338,5.3308,5.3282,5.3225,5.3195,5.3173,5.3168,5.3145,5.3158,5.317,5.3154,5.3155,5.3156,5.3154,5.3154,5.3157,5.3157,5.3157,0,5.36,5.3563,5.353,5.3506,5.3485,5.3452,5.3431,5.3406,5.3355,5.334,5.3333,5.3263,5.323,5.3191,5.3191,5.3173,5.3166,5.3164,5.3158,5.3158,5.3158,5.3156,5.3156,5.3159,5.3159,5.3158,5.3158,0,5.3585,5.3559,5.3548,5.3504,5.3482,5.3459,5.3421,5.3402,5.3382,5.3354,5.332,5.328,5.3238,5.3227,5.3205,5.3185,5.3182,5.3167,5.3154,5.3162,5.3159,5.3158,5.3161,5.3161,5.316,5.316,0,0,5.3607,5.3548,5.3544,5.3525,5.3478,5.3457,5.3432,5.3395,5.338,5.3346,5.3324,5.3278,5.3265,5.3239,5.3213,5.3199,5.3199,5.3186,5.3184,5.319,5.3175,5.3187,5.3186,5.3184,5.3184,5.3183,5.3179,0,5.3605,5.3564,5.3534,5.3503,5.3479,5.3448,5.3427,5.3395,5.3369,5.3343,5.3313,5.3281,5.3266,5.3251,5.3236,5.3202,5.3195,5.3202,5.3161,5.316,5.3173,5.3185,5.3196,5.3194,5.3178,5.3177,5.3177,0,5.3596,5.3568,5.3536,5.3494,5.3482,5.3464,5.3429,5.3405,5.3367,5.3349,5.3323,5.3297,5.3268,5.3258,5.3218,5.3223,5.3204,5.3186,5.3185,5.3179,5.3169,5.3179,5.3192,5.3192,5.3175,5.3175,5.3175,0,5.3617,5.357,5.3545,5.3529,5.3479,5.3467,5.3446,5.3409,5.3389,5.3357,5.3343,5.3307,5.3286,5.3258,5.3222,5.3218,5.3185,5.3172,5.3168,5.3169,5.3161,5.3162,5.3172,5.315,5.315,5.315,5.315,0,5.3617,5.3598,5.3554,5.3538,5.3516,5.3482,5.346,5.3436,5.3404,5.3381,5.3351,5.333,5.3285,5.3258,5.3229,5.32,5.3191,5.3174,5.3167,5.3177,5.3179,5.3163,5.3163,5.315,5.315,5.315,5.315,0,5.3635,5.3605,5.3576,5.3533,5.3522,5.3507,5.3469,5.3452,5.3426,5.3398,5.3389,5.3346,5.3313,5.3276,5.3229,5.321,5.3182,5.3172,5.3196,5.3192,5.319,5.3191,5.3189,5.3187,5.3168,5.3168,5.3168,0,5.3638,5.3623,5.358,5.3565,5.3545,5.352,5.3501,5.3466,5.3447,5.3405,5.3393,5.3358,5.3329,5.3277,5.324,5.3204,5.3192,5.3195,5.3186,5.3198,5.3192,5.3194,5.3192,5.3196,5.3197,5.3197,5.3197,0,5.3645,5.3631,5.3606,5.3576,5.3555,5.3529,5.3501,5.3489,5.3449,5.3428,5.3396,5.3374,5.3329,5.3294,5.3255,5.3229,5.3206,5.3201,5.3198,5.3208,5.3223,5.3215,5.3202,5.32,5.32,5.32,5.32,5.32,5.3654,5.3641,5.361,5.3583,5.3559,5.3535,5.3517,5.349,5.3464,5.3427,5.3408,5.3376,5.3339,5.3284,5.326,5.3233,5.3225,5.3221,5.322,5.3219,5.3222,5.3228,5.3225,5.3225,5.3225,5.3225,5.3225,0,5.366,5.3639,5.3615,5.358,5.3559,5.3543,5.3512,5.3494,5.3468,5.3438,5.3411,5.3374,5.3341,5.3303,5.3267,5.3253,5.3242,5.3245,5.3245,5.324,5.3231,5.3237,5.3255,5.3255,5.3255,5.3255,5.3255,5.3255,5.3661,5.3637,5.362,5.3585,5.3563,5.3534,5.3518,5.3495,5.3471,5.3433,5.3407,5.3384,5.335,5.3312,5.328,5.327,5.3258,5.3264,5.325,5.3243,5.324,5.3238,5.3243,5.3262,5.3262,5.3261,5.3261,5.3261]}]]